Weather past 2 weeks in Cayenne, French Guiana

Now
73 °F

Clear.


Feels Like: 68 °F
Forecast: 77 / 87 °F
Wind: 1 mph from Southwest

Location: Cayenne / Rochambeau

Current Time: Sep 21, 2014 at 7:58:05 AM

Latest Report: Sep 21, 2014 at 7:30 AM


Visibility: N/A

Pressure: 29.92 "Hg

Humidity: 100%

Dew point: 73 °F

Location of CayenneLocation

Historic Weather in Cayenne — Graph

°F

Cayenne temperature yesterday

Maximum temperature yesterday: 88 °F (at 10:00 AM)
Minimum temperature yesterday: 72 °F (at 5:00 AM)
Average temperature yesterday: 79 °F

Past Weeks' High & Low Weather Summary

 TemperatureHumidityPressure
High91 °F (Sep 15, 1:00 PM)100% (Sep 6, 7:00 AM)29.98 "Hg (Sep 6, 7:00 AM)
Low72 °F (Sep 6, 6:00 AM)49% (Sep 11, 12:00 PM)29.80 "Hg (Sep 10, 4:30 PM)
Average80 °F80%29.89 "Hg
* Reported Sep 6 6:00 AM — Sep 21 6:30 AM, Cayenne, Weather by CustomWeather, © 2014

Note: Actual official high and low records may vary slightly from our data, if they occured in-between our weather recording intervals... More about our weather records

Advertising

Cayenne weather history for previous 24 hours

 ConditionsComfort  
Time TempWeatherWind HumidityBarometerVisibility
6:30 AM
Sep 21
72 °FPassing clouds.No wind94%29.92 "HgN/A
6:00 AM72 °FMild.No wind100%29.89 "HgN/A
5:30 AM73 °FPassing clouds.No wind94%29.89 "HgN/A
5:00 AM72 °FPassing clouds.3 mph94%29.89 "HgN/A
4:30 AM72 °FFog.No wind94%29.89 "Hg1 mi
4:00 AM73 °FPassing clouds.No wind94%29.86 "HgN/A
3:30 AM73 °FMild.No wind94%29.86 "HgN/A
3:00 AM73 °FClear.2 mph94%29.86 "HgN/A
2:30 AM73 °FPassing clouds.No wind94%29.86 "HgN/A
2:00 AM73 °FClear.No wind94%29.89 "HgN/A
1:30 AM73 °FPassing clouds.No wind94%29.89 "HgN/A
1:00 AM73 °FClear.No wind94%29.89 "HgN/A
12:30 AM73 °FClear.No wind94%29.92 "HgN/A
12:00 AM75 °FClear.No wind89%29.92 "HgN/A
11:30 PM
Sep 20
77 °FClear.2 mph89%29.92 "HgN/A
11:00 PM77 °FWarm.3 mph89%29.95 "HgN/A
10:30 PM79 °FClear.3 mph84%29.95 "HgN/A
10:00 PM79 °FWarm.3 mph84%29.95 "HgN/A
9:30 PM79 °FWarm.6 mph84%29.92 "HgN/A
9:00 PM79 °FClear.7 mph84%29.92 "HgN/A
8:30 PM81 °FClear.8 mph79%29.92 "HgN/A
8:00 PM81 °FClear.7 mph79%29.92 "HgN/A
7:30 PM81 °FWarm.7 mph79%29.89 "HgN/A
7:00 PM82 °FClear.6 mph74%29.89 "HgN/A
6:30 PM82 °FWarm.6 mph74%29.89 "HgN/A
5:30 PM84 °FClear.12 mph70%29.86 "HgN/A
5:00 PM86 °FWarm.9 mph66%29.86 "HgN/A
4:30 PM88 °FWarm.15 mph62%29.86 "HgN/A
4:00 PM88 °FWarm.13 mph66%29.86 "HgN/A
3:30 PM88 °FPassing clouds.13 mph62%29.86 "HgN/A
3:00 PM88 °FPassing clouds.15 mph62%29.86 "HgN/A
10:30 AM88 °FPartly sunny.8 mph59%29.98 "HgN/A
10:00 AM88 °FBroken clouds.8 mph62%29.98 "HgN/A
9:30 AM84 °FScattered clouds.8 mph70%29.98 "HgN/A
9:00 AM82 °FWarm.5 mph79%29.95 "HgN/A
8:30 AM81 °FClear.3 mph84%29.95 "HgN/A
8:00 AM77 °FPassing clouds.2 mph94%29.92 "HgN/A
7:30 AM73 °FPartly sunny.No wind100%29.92 "HgN/A
7:00 AM73 °FPartly sunny.No wind94%29.92 "HgN/A
Weather by CustomWeather, © 2014

See weather overviewHow to use our weather pages